Temperature
14 14 14 14 14 14 14 14 14 14 13 13 13 13 14 14 14 14 14 15 15 15 15 15 15 15 15 15 15 15 15 15 15 15 15 15 15 15
13 13 13 13 14 14 14 14 14 14 13 13 13 13 13 13 14 14 14 14 14 14 14 14 14 14 14 14 14 14 14 14 14 15 15 15 15 15
13 13 13 13 13 13 13 13 13 14 14 13 13 13 13 13 13 13 13 13 13 13 13 14 14 14 14 14 14 14 14 14 14 14 14 14 14 14
12 12 13 13 13 13 13 13 13 13 13 13 12 12 12 12 12 13 13 13 13 13 13 13 13 13 13 13 13 13 13 13 13 13 14 14 14 14
12 12 12 12 12 12 12 13 13 13 13 13 12 12 12 12 12 12 12 12 12 12 12 12 12 12 12 12 12 12 13 13 13 13 13 13 13 13
11 12 12 12 12 12 12 12 12 12 12 12 12 11 12 12 12 12 11 12 12 11 11 12 12 12 12 12 12 12 12 12 12 12 12 13 13 13
11 11 11 11 12 12 12 12 12 12 12 12 11 11 11 11 11 11 11 11 11 11 11 11 11 11 11 11 11 11 11 11 12 12 12 12 12 12
11 11 11 11 11 11 11 11 11 11 11 11 11 11 10 10 10 10 11 11 11 10 10 10 11 11 10 11 11 11 11 11 11 11 11 11 12 12
10 10 11 11 11 11 11 10 10 10 11 11 11 10 10 10 10 10 10 10 10 10 10 10 10 10 10 10 10 10 10 10 11 11 11 11 11 11
10 10 10 10 10 10 10 10 10 10 10 10 10 10 10 9 9 9 9 9 9 9 9 9 10 10 9 9 9 9 10 10 10 10 10 10 10 10
10 10 10 10 10 10 10 10 10 10 10 9 9 9 9 9 9 9 9 9 9 9 9 9 9 9 9 9 9 9 9 9 10 10 10 10 10 10
10 10 10 10 10 10 10 10 10 9 9 9 9 9 9 8 8 8 8 8 8 8 8 8 8 8 8 8 8 8 9 9 9 9 9 9 9 9
10 10 10 10 10 10 10 10 10 9 9 9 9 8 8 8 8 8 8 8 8 7 7 7 7 8 8 8 8 8 8 8 9 9 9 9 9 9
10 10 10 9 9 9 9 9 9 9 9 8 8 8 8 8 7 7 7 7 7 7 7 7 7 7 7 7 7 8 8 8 8 8 8 8 8 8
10 10 9 9 9 9 9 9 9 9 8 8 8 8 7 7 7 7 7 7 7 7 7 7 6 7 7 7 7 7 7 7 7 7 7 7 7 8
9 9 9 9 9 9 9 8 8 8 8 8 8 7 7 7 7 7 7 7 7 6 6 6 6 6 6 6 6 6 6 6 6 7 7 7 7 7
9 9 9 9 9 8 8 8 8 8 8 8 8 7 7 7 7 7 7 7 7 6 6 6 6 6 6 6 6 6 6 6 6 6 6 6 6 6
9 9 9 9 9 9 8 8 8 8 8 8 8 8 7 7 7 7 7 7 6 6 6 6 6 6 6 6 6 5 5 5 5 6 6 6 5 5
9 9 9 9 9 9 9 8 8 8 8 8 8 8 8 7 7 7 7 7 6 6 6 6 6 6 5 5 5 5 5 5 5 5 5 5 5 5
9 9 9 9 9 9 9 9 9 8 8 8 8 8 8 8 8 7 7 7 6 6 6 6 5 5 5 5 5 5 5 5 5 5 5 5 5 5
9 9 9 9 9 9 9 9 9 9 9 8 8 8 8 8 8 8 7 7 6 6 6 5 5 5 5 5 5 5 5 5 5 5 5 5 5 5
10 10 9 9 9 9 9 9 9 9 9 9 9 9 8 8 8 8 7 7 7 6 6 5 5 5 5 5 5 5 5 4 4 4 4 4 4 4
10 10 10 10 10 10 10 10 9 9 9 9 9 9 9 9 8 8 8 7 7 6 6 5 5 5 4 4 4 4 4 4 4 4 4 4 4 4
Wind_Speed
8 8 7 5 6 5 5 5 5 4 2 1 2 3 3 5 7 7 7 9 10 10 9 9 9 10 10 9 9 8 6 4 2 1 3 6 8 11
4 5 5 4 4 5 5 4 4 4 3 2 2 3 4 5 8 8 9 11 12 11 10 10 10 10 10 10 10 8 7 5 4 3 2 3 5 8
2 4 4 4 3 3 4 4 4 5 6 3 3 3 5 6 6 8 9 9 9 12 11 11 11 11 10 10 9 8 7 6 5 4 4 5 6 8
3 4 4 5 5 4 4 5 5 6 8 8 3 4 5 5 5 7 6 8 9 12 12 12 11 11 10 10 10 9 8 7 6 6 6 7 8 10
5 5 5 7 7 6 7 7 7 8 8 8 5 3 4 5 5 5 6 6 7 10 11 11 11 11 11 10 10 9 8 7 7 7 7 8 10 12
6 6 6 7 8 8 8 9 10 10 10 9 6 5 4 4 4 5 5 5 6 7 8 8 9 10 11 10 10 9 9 8 8 7 8 9 11 13
7 8 8 10 11 9 10 10 11 10 9 9 7 6 4 4 4 3 4 3 5 6 5 5 5 5 6 8 9 9 9 9 9 9 10 11 12 14
8 8 10 11 15 16 15 13 11 11 10 8 7 6 4 3 2 3 3 3 4 6 4 5 4 5 5 5 8 9 9 9 9 10 11 12 13 15
7 7 8 10 11 12 14 14 12 11 10 8 8 5 3 1 2 4 4 4 3 4 3 4 5 4 4 6 8 10 10 11 11 11 12 13 14 16
6 7 9 8 9 11 12 11 10 8 7 7 7 4 3 2 2 2 2 3 2 4 4 4 4 3 4 5 8 11 12 12 13 13 13 14 16 17
6 6 8 8 11 14 13 12 10 8 10 12 11 10 9 7 4 4 4 4 4 4 5 3 4 3 3 3 6 11 12 13 14 14 15 16 16 15
6 6 7 10 11 12 11 11 11 7 7 9 9 10 9 10 10 6 4 4 3 4 5 4 4 4 3 3 4 8 10 11 14 14 15 16 16 10
7 5 5 11 12 12 10 9 11 9 8 9 8 8 7 7 7 7 5 5 5 3 4 3 3 3 3 3 4 6 7 8 10 10 13 16 16 11
8 6 7 12 13 12 10 12 14 10 8 8 7 6 6 5 5 6 6 6 5 4 4 3 3 3 4 4 4 6 7 8 9 9 9 13 13 13
7 10 12 14 13 10 12 13 10 8 8 7 6 4 3 3 3 3 5 5 7 8 8 6 4 4 4 4 5 5 5 6 10 9 9 10 10 9
9 11 12 12 10 10 9 7 6 6 6 6 5 3 3 4 4 3 4 4 5 6 8 9 7 5 5 5 5 6 6 6 8 9 8 8 9 10
11 7 5 6 6 5 5 5 5 5 5 4 5 5 4 4 3 3 3 4 4 4 5 6 5 4 4 5 6 7 7 6 8 8 7 8 9 9
12 9 7 7 7 7 7 5 4 5 5 5 5 5 4 4 4 3 3 4 4 3 4 4 5 4 4 4 4 7 7 7 7 8 7 7 8 8
10 10 9 8 7 7 7 6 5 5 5 5 5 5 5 4 3 3 3 3 3 3 3 3 4 4 6 6 5 5 6 6 7 7 7 5 6 7
9 11 10 9 8 8 7 6 6 6 5 5 5 5 4 4 3 3 3 2 2 1 2 3 3 3 3 3 4 4 6 5 5 7 7 5 4 5
10 11 10 9 8 8 8 7 7 7 7 6 5 5 5 4 4 3 3 3 2 1 1 2 3 4 2 1 2 4 5 6 5 4 5 6 6 7
12 11 10 10 9 9 8 8 8 7 8 7 6 6 5 5 5 5 5 4 3 2 1 1 3 2 2 2 3 4 5 5 5 5 7 6 4 6
12 11 10 10 9 8 8 9 10 9 8 8 7 7 6 6 5 5 5 4 4 3 2 0 1 1 2 2 2 3 5 5 4 4 5 9 7 5
Wind_Direction
230 220 216 209 199 197 188 178 169 166 152 74 52 20 35 59 48 60 62 62 67 70 69 68 69 71 74 78 81 84 89 91 98 163 234 242 246 248
217 206 201 195 189 188 183 178 169 151 135 96 65 33 39 65 54 62 66 64 62 67 71 72 73 75 76 77 78 79 79 77 70 50 6 311 287 276
186 176 171 161 163 163 157 155 147 132 126 104 56 39 53 60 53 57 61 61 58 59 68 72 73 74 74 73 71 68 64 57 47 27 355 325 307 295
135 131 131 131 120 120 126 128 125 120 126 119 71 47 51 53 56 55 51 55 54 53 61 66 69 72 73 70 66 60 52 41 27 8 348 330 316 304
104 112 113 113 107 103 104 106 105 105 103 111 95 58 56 48 54 53 50 42 47 47 53 59 61 67 68 66 61 53 43 31 17 0 344 330 318 308
86 90 95 106 110 109 106 106 107 104 102 104 96 75 59 42 56 56 54 40 37 31 37 45 54 61 61 58 52 44 35 25 11 357 343 330 319 309
83 81 87 99 105 108 114 112 111 108 106 103 96 85 66 55 52 40 61 52 47 26 22 30 34 42 44 44 43 36 25 14 2 351 341 332 323 315
90 87 91 92 94 93 97 101 110 117 116 107 101 95 82 65 54 54 56 55 43 10 12 18 22 32 30 34 29 26 17 6 355 346 337 330 325 319
94 96 99 97 98 101 94 90 89 97 111 119 113 112 105 93 89 75 67 70 58 356 0 19 9 17 18 26 24 23 14 4 352 342 334 329 327 325
88 98 108 107 113 113 106 96 87 81 92 100 110 108 103 112 102 95 95 88 64 33 18 22 356 350 349 8 18 14 9 2 355 348 341 335 331 328
87 96 112 111 119 119 114 107 96 85 82 88 86 82 78 78 99 99 82 78 56 26 16 16 351 337 339 353 3 6 3 360 356 352 348 343 338 333
98 91 105 118 123 123 123 122 117 111 105 92 76 66 68 63 60 69 85 84 69 32 7 5 2 360 358 349 352 4 4 357 354 354 351 348 348 346
129 118 113 120 118 117 121 124 131 126 110 101 91 81 72 64 59 57 60 75 77 53 358 358 12 14 6 336 340 354 360 0 358 358 357 354 355 358
144 139 130 123 117 114 112 120 120 115 110 103 96 86 78 69 58 57 62 68 69 61 16 25 40 25 21 17 355 341 346 2 3 0 0 358 359 0
143 141 133 122 111 107 114 120 119 117 114 110 106 94 81 67 69 68 56 62 65 55 43 39 48 48 48 31 5 352 342 350 360 2 5 15 14 9
130 128 117 109 102 105 106 105 108 117 121 120 115 104 94 85 70 65 61 50 53 39 34 36 37 48 49 35 26 13 3 355 355 359 5 20 23 22
137 126 123 123 120 117 111 109 113 118 114 119 122 118 106 95 79 69 70 68 63 39 19 10 16 47 56 37 28 18 9 7 2 360 7 24 27 21
142 149 150 150 150 148 143 134 134 134 133 134 132 128 123 115 105 90 84 80 69 46 26 6 5 30 45 62 39 14 13 8 1 6 13 18 20 17
151 162 164 165 163 161 160 156 156 152 147 147 143 141 135 129 125 119 110 98 79 55 33 18 22 32 30 24 20 30 8 359 2 12 14 13 8 0
170 171 173 172 171 170 171 166 157 153 156 160 157 155 153 147 144 145 145 137 116 76 43 33 25 15 11 357 339 346 5 2 1 5 3 359 359 343
178 177 177 176 177 177 178 174 169 169 171 172 174 172 169 165 166 168 167 159 154 135 45 10 342 321 279 295 353 6 8 11 9 357 354 0 4 9
180 180 180 180 180 179 178 177 175 177 180 185 187 186 185 185 186 186 186 183 185 189 210 342 355 16 47 33 18 357 353 2 14 32 35 23 9 11
181 181 180 181 181 178 178 180 183 187 191 195 196 196 193 196 200 198 197 197 192 193 201 214 35 45 42 21 6 359 358 359 360 10 25 19 30 36
Height
1437 1439 1440 1442 1444 1447 1449 1452 1455 1457 1459 1461 1462 1464 1465 1466 1466 1467 1467 1467 1467 1467 1468 1468 1469 1469 1470 1471 1473 1476 1478 1481 1483 1486 1488 1491 1493 1495
1433 1434 1436 1438 1440 1442 1445 1447 1450 1453 1455 1458 1460 1462 1464 1465 1465 1466 1466 1466 1466 1466 1467 1467 1467 1468 1469 1470 1471 1473 1475 1477 1478 1480 1482 1484 1486 1488
1429 1431 1432 1434 1436 1438 1441 1444 1446 1450 1453 1456 1459 1461 1463 1464 1464 1465 1465 1465 1465 1465 1466 1466 1466 1467 1468 1468 1469 1470 1472 1473 1474 1476 1477 1478 1480 1481
1427 1428 1430 1432 1434 1436 1439 1442 1445 1448 1451 1454 1458 1461 1463 1464 1464 1465 1465 1465 1465 1465 1465 1466 1466 1466 1467 1467 1468 1468 1469 1470 1470 1471 1472 1473 1474 1474
1426 1428 1429 1431 1433 1436 1439 1441 1444 1448 1451 1454 1458 1461 1463 1464 1465 1465 1466 1466 1466 1466 1466 1466 1466 1465 1466 1466 1466 1466 1466 1467 1467 1467 1467 1467 1467 1467
1427 1429 1431 1432 1434 1437 1439 1442 1445 1449 1453 1456 1459 1461 1463 1464 1465 1466 1466 1466 1466 1466 1466 1466 1466 1465 1465 1465 1465 1465 1464 1464 1463 1463 1462 1462 1461 1461
1429 1431 1433 1435 1437 1439 1442 1445 1448 1451 1455 1457 1460 1462 1464 1465 1465 1466 1466 1467 1467 1467 1467 1466 1466 1466 1465 1464 1464 1463 1462 1461 1460 1459 1458 1457 1456 1454
1431 1433 1435 1437 1440 1442 1445 1448 1452 1454 1457 1459 1461 1463 1464 1465 1466 1466 1467 1467 1467 1468 1467 1467 1466 1465 1464 1464 1463 1461 1460 1459 1457 1456 1454 1452 1450 1448
1434 1436 1438 1441 1443 1446 1449 1451 1454 1457 1460 1461 1462 1464 1465 1466 1467 1467 1467 1467 1467 1468 1467 1467 1466 1465 1464 1463 1461 1460 1458 1456 1455 1453 1451 1448 1445 1442
1438 1440 1442 1444 1446 1449 1451 1454 1457 1459 1461 1463 1464 1465 1466 1467 1467 1468 1467 1467 1468 1467 1467 1466 1466 1465 1464 1462 1461 1459 1457 1455 1452 1450 1447 1444 1441 1437
1440 1442 1445 1447 1449 1451 1454 1455 1458 1460 1463 1464 1465 1466 1467 1467 1468 1468 1468 1468 1468 1467 1467 1466 1465 1463 1463 1462 1460 1458 1456 1453 1450 1447 1444 1441 1437 1433
1441 1444 1447 1449 1451 1453 1455 1457 1459 1461 1463 1465 1466 1467 1468 1468 1469 1469 1468 1468 1468 1468 1467 1466 1464 1463 1462 1461 1459 1457 1454 1452 1449 1446 1442 1438 1434 1430
1442 1445 1447 1450 1452 1454 1456 1458 1460 1462 1464 1466 1467 1468 1469 1470 1470 1470 1469 1469 1469 1468 1468 1466 1465 1463 1462 1461 1459 1457 1454 1451 1448 1445 1441 1437 1433 1429
1442 1445 1447 1450 1452 1455 1457 1459 1461 1464 1465 1467 1468 1469 1470 1471 1471 1471 1471 1470 1469 1469 1468 1467 1465 1464 1463 1461 1459 1457 1454 1451 1447 1444 1440 1437 1433 1429
1442 1445 1447 1450 1453 1455 1458 1460 1463 1465 1466 1468 1469 1470 1472 1472 1473 1473 1473 1472 1471 1470 1469 1468 1467 1466 1464 1462 1460 1457 1454 1451 1448 1444 1441 1437 1433 1428
1441 1444 1447 1450 1453 1456 1459 1461 1463 1465 1467 1469 1470 1471 1473 1474 1474 1475 1474 1474 1473 1472 1471 1470 1469 1467 1466 1464 1461 1459 1456 1453 1449 1446 1442 1439 1434 1430
1439 1443 1447 1450 1453 1456 1459 1462 1464 1466 1468 1470 1471 1472 1474 1475 1475 1476 1475 1475 1475 1474 1473 1472 1470 1469 1467 1465 1463 1460 1458 1454 1451 1447 1444 1440 1436 1432
1438 1441 1445 1449 1453 1456 1459 1462 1464 1466 1468 1470 1472 1473 1475 1476 1476 1476 1476 1476 1476 1475 1474 1473 1472 1470 1469 1466 1465 1462 1460 1456 1453 1450 1446 1442 1439 1436
1436 1440 1444 1448 1452 1456 1459 1461 1464 1466 1469 1471 1472 1474 1475 1476 1477 1477 1477 1477 1477 1476 1475 1474 1473 1471 1469 1468 1466 1464 1461 1458 1455 1452 1448 1445 1442 1438
1433 1437 1442 1446 1451 1454 1458 1461 1463 1466 1468 1471 1472 1474 1475 1476 1477 1477 1477 1477 1477 1476 1476 1475 1473 1472 1470 1469 1467 1465 1463 1460 1457 1454 1451 1448 1444 1441
1429 1435 1440 1444 1449 1453 1456 1460 1463 1465 1468 1470 1472 1474 1475 1476 1477 1477 1477 1477 1477 1476 1475 1474 1473 1472 1470 1469 1468 1466 1464 1461 1459 1456 1453 1450 1446 1443
1425 1431 1437 1442 1446 1451 1454 1458 1461 1464 1467 1469 1471 1473 1474 1475 1476 1476 1476 1476 1476 1475 1475 1474 1472 1471 1470 1469 1467 1466 1464 1462 1460 1457 1454 1452 1449 1445
1421 1427 1433 1439 1443 1448 1452 1455 1459 1462 1465 1467 1469 1471 1472 1474 1474 1475 1475 1475 1475 1474 1473 1473 1472 1470 1469 1468 1467 1465 1464 1462 1460 1458 1456 1453 1451 1448